Погода в Пуэрто-Наталес

Чили     51°44′03″S   72°28′05″W
темп.,
°C
ветер,
м/с
пор.,
м/с
влажн.,
%
обл.,
%
осадки,
мм/ч
давл.,
гПа
погр.,
м
26 февраля, пт
пт2600:00+9зсз2392100 0.0 1013101
03:00+8з2394100 0.0 101379
06:00+7зсз129494 0.0 101472
09:00+10сз128455 0.0 1014181
12:00+14з23650 0.0 1014565
15:00+17з24600 0.0 1014592
18:00+17зсз23620 0.0 1014491
21:00+12сз23880 0.0 101429
27 февраля, сб
сб2700:00+10сз12930 0.0 101423
03:00+9сз11940 0.0 101323
06:00+9ссз12940 0.0 101222
09:00+11сз11850 0.0 101271
12:00+17з12610 0.0 1009401
15:00+20зсз23560 0.0 1007521
18:00+19з34570 0.0 1004399
21:00+14зюз47780 0.0 1004168
28 февраля, вс
вс2800:00+11сз229032 0.0 100227
03:00+11с229050 0.0 100047
06:00+11сз1294100 0.8 100055
09:00+12сз269596 1.4 1002216
12:00+13з249092 0.3 1003355
15:00+16зюз575955 0.3 1005985
18:00+14юз456114 0.0 1006813
21:00+10юз257121 0.0 1009326
1 марта, пн
пн100:00+9юз127276 0.0 1011237
03:00+8ю237588 0.0 1012381
06:00+7ююз247599 0.1 1013555
09:00+7ююз356799 0.1 1014575
12:00+9зюз345130 0.0 1015986
15:00+11з344315 0.0 10151105
18:00+11зюз34450 0.0 10151273
21:00+7юз24640 0.0 1017175
2 марта, вт
вт200:00+5з11750 0.0 101865
03:00+4зсз12800 0.0 101899
06:00+3сз12840 0.0 1019124
09:00+6сз12710 0.0 1020218
12:00+11з34500 0.0 1020977
15:00+12з35450 0.0 10191144
18:00+12зюз45510 0.0 10201033
21:00+7зюз23808 0.0 102179